Location: Poughquag
(41.6090°N, 73.6820°W)
Time: 12:27:15
(UTC-04:00)

Tiros 1 - Pass Details

Date: 29 May 2020
Orbit: 630 x 664 km, 48.4° (Epoch: 06 July)

Event Time Altitude Azimuth Distance (km) Brightness Sun altitude
Rises 17:52:42 0° 294° (WNW) 2,946 11.7 25.2°
Reaches altitude 10° 17:55:09 10° 302° (WNW) 2,030 11.1 24.7°
Maximum altitude 17:59:36 43° 14° (NNE) 894 8.1 23.9°
Drops below altitude 10° 18:04:01 10° 86° (E) 2,010 9.2 23.1°
Sets 18:06:26 0° 93° (E) 2,914 9.9 22.6°
